Location: Eurasberg
(48.3353°N, 11.0839°E)
Time: 15:01:06
(UTC+00:00)

Lacrosse 5 rocket - Pass Details

Date: 18 January 2026
Orbit: 400 x 481 km, 57.0° (Epoch: 18 February)

Event Time Altitude Azimuth Distance (km) Brightness Sun altitude
Exits shadow 03:51:31 12° 42° (NE) 1,533 4.0 -30.8°
Drops below altitude 10° 03:52:00 10° 47° (NE) 1,682 4.3 -30.7°
Sets 03:54:32 0° 63° (ENE) 2,565 5.7 -30.3°
